• In Hungary
  • List of Countries
  • For 7 days
  • Water Temperature
  • Satellite Maps
  • Weather Map
  • News
  • Weather Widgets
  • user-avatar
    Login

    Hourly Weather Yumakaevo

    Today, 23 May, Wednesday

    Time Temperature Precipitation Wind Pressure Humidity
    00:00 +14°C° 0 mm 3 mps 758 mmHg 76%
    01:00 +14°C° 0 mm 3 mps 758 mmHg 79%
    02:00 +14°C° 0 mm 2 mps 758 mmHg 80%
    03:00 +13°C° 0 mm 2 mps 759 mmHg 80%
    04:00 +14°C° 0 mm 2 mps 758 mmHg 84%
    05:00 +15°C° 0 mm 2 mps 758 mmHg 80%
    06:00 +17°C° 0 mm 2 mps 759 mmHg 75%
    07:00 +18°C° 0 mm 2 mps 759 mmHg 70%
    08:00 +20°C° 0 mm 2 mps 759 mmHg 66%
    09:00 +22°C° 0 mm 3 mps 758 mmHg 62%
    10:00 +24°C° 0 mm 3 mps 758 mmHg 58%
    11:00 +25°C° 0 mm 4 mps 758 mmHg 56%
    12:00 +26°C° 0 mm 4 mps 758 mmHg 53%
    13:00 +27°C° 0 mm 5 mps 757 mmHg 51%
    14:00 +27°C° 0 mm 5 mps 757 mmHg 51%
    15:00 +27°C° 0 mm 5 mps 756 mmHg 50%
    16:00 +27°C° 0 mm 6 mps 756 mmHg 50%
    17:00 +25°C° 0 mm 5 mps 756 mmHg 55%
    18:00 +23°C° 0 mm 4 mps 756 mmHg 60%
    19:00 +22°C° 0 mm 4 mps 755 mmHg 65%
    20:00 +21°C° 0 mm 4 mps 755 mmHg 66%
    21:00 +19°C° 0 mm 3 mps 755 mmHg 68%
    22:00 +18°C° 0 mm 3 mps 755 mmHg 69%
    23:00 +18°C° 0 mm 3 mps 754 mmHg 71%

    Tomorrow, 24 May, Thursday

    Time Temperature Precipitation Wind Pressure Humidity
    00:00 +17°C° 0 mm 3 mps 754 mmHg 72%
    01:00 +16°C° 0 mm 3 mps 754 mmHg 74%
    02:00 +16°C° 0 mm 3 mps 753 mmHg 75%
    03:00 +14°C° 0 mm 4 mps 753 mmHg 77%
    04:00 +14°C° 0 mm 4 mps 753 mmHg 78%
    05:00 +15°C° 0.1 mm 4 mps 752 mmHg 77%
    06:00 +16°C° 0.1 mm 5 mps 752 mmHg 76%
    07:00 +17°C° 0.1 mm 5 mps 752 mmHg 75%
    08:00 +17°C° 0.4 mm 5 mps 752 mmHg 75%
    09:00 +19°C° 0.4 mm 5 mps 751 mmHg 76%
    10:00 +20°C° 0.4 mm 5 mps 751 mmHg 76%
    11:00 +21°C° 0.1 mm 6 mps 751 mmHg 70%
    12:00 +22°C° 0.1 mm 6 mps 751 mmHg 64%
    13:00 +23°C° 0.1 mm 7 mps 751 mmHg 58%
    14:00 +23°C° 0.4 mm 6 mps 751 mmHg 61%
    15:00 +22°C° 0.4 mm 6 mps 751 mmHg 65%
    16:00 +21°C° 0.4 mm 6 mps 751 mmHg 68%
    17:00 +20°C° 0.2 mm 5 mps 750 mmHg 71%
    18:00 +20°C° 0.2 mm 5 mps 750 mmHg 74%
    19:00 +19°C° 0.2 mm 4 mps 750 mmHg 77%
    20:00 +18°C° 0.3 mm 4 mps 750 mmHg 81%
    21:00 +17°C° 0.3 mm 3 mps 750 mmHg 85%
    22:00 +16°C° 0.3 mm 2 mps 750 mmHg 89%
    23:00 +14°C° 0.7 mm 3 mps 750 mmHg 90%

    Day after tomorrow, 25 May, Friday

    Time Temperature Precipitation Wind Pressure Humidity
    00:00 +14°C° 0.7 mm 3 mps 750 mmHg 91%
    01:00 +14°C° 0.7 mm 4 mps 750 mmHg 93%
    02:00 +13°C° 0.1 mm 3 mps 749 mmHg 92%
    03:00 +12°C° 0.1 mm 3 mps 749 mmHg 92%
    04:00 +12°C° 0.1 mm 3 mps 749 mmHg 91%
    05:00 +12°C° 0 mm 3 mps 749 mmHg 88%
    06:00 +11°C° 0 mm 3 mps 749 mmHg 85%
    07:00 +11°C° 0 mm 3 mps 749 mmHg 82%
    08:00 +12°C° 0 mm 4 mps 749 mmHg 72%
    09:00 +13°C° 0 mm 4 mps 749 mmHg 62%
    10:00 +14°C° 0 mm 4 mps 749 mmHg 51%
    11:00 +15°C° 0 mm 5 mps 749 mmHg 49%
    12:00 +15°C° 0 mm 5 mps 749 mmHg 47%
    13:00 +15°C° 0 mm 5 mps 749 mmHg 44%
    14:00 +15°C° 0 mm 6 mps 749 mmHg 46%
    15:00 +14°C° 0 mm 6 mps 749 mmHg 47%
    16:00 +14°C° 0 mm 6 mps 749 mmHg 48%
    17:00 +13°C° 0 mm 6 mps 749 mmHg 51%
    18:00 +11°C° 0 mm 6 mps 750 mmHg 55%
    19:00 +11°C° 0 mm 6 mps 750 mmHg 58%
    20:00 +9°C° 0 mm 6 mps 751 mmHg 56%
    21:00 +8°C° 0 mm 6 mps 751 mmHg 55%
    22:00 +7°C° 0 mm 6 mps 752 mmHg 53%
    23:00 +5°C° 0 mm 6 mps 752 mmHg 52%

    26 May, Saturday

    Time Temperature Precipitation Wind Pressure Humidity
    00:00 +5°C° 0 mm 7 mps 752 mmHg 52%
    01:00 +4°C° 0 mm 7 mps 753 mmHg 51%
    02:00 +3°C° 0 mm 7 mps 753 mmHg 52%
    03:00 +3°C° 0 mm 7 mps 754 mmHg 52%
    04:00 +2°C° 0 mm 6 mps 754 mmHg 53%
    05:00 +3°C° 0 mm 7 mps 755 mmHg 54%
    06:00 +3°C° 0 mm 7 mps 756 mmHg 54%
    07:00 +4°C° 0 mm 7 mps 756 mmHg 54%
    08:00 +5°C° 0 mm 7 mps 756 mmHg 51%
    09:00 +8°C° 0 mm 6 mps 757 mmHg 48%
    10:00 +9°C° 0 mm 6 mps 757 mmHg 44%
    11:00 +10°C° 0 mm 7 mps 757 mmHg 43%
    12:00 +11°C° 0 mm 7 mps 757 mmHg 41%
    13:00 +11°C° 0 mm 7 mps 757 mmHg 39%
    14:00 +12°C° 0 mm 7 mps 757 mmHg 40%
    15:00 +13°C° 0 mm 6 mps 757 mmHg 41%
    16:00 +14°C° 0 mm 6 mps 757 mmHg 42%
    17:00 +13°C° 0 mm 5 mps 757 mmHg 47%
    18:00 +13°C° 0 mm 4 mps 757 mmHg 53%
    19:00 +12°C° 0 mm 3 mps 757 mmHg 59%
    20:00 +12°C° 0 mm 2 mps 757 mmHg 61%
    21:00 +9°C° 0 mm 2 mps 757 mmHg 63%
    22:00 +8°C° 0 mm 2 mps 757 mmHg 66%
    23:00 +7°C° 0 mm 2 mps 757 mmHg 68%

    27 May, Sunday

    Time Temperature Precipitation Wind Pressure Humidity
    00:00 +7°C° 0 mm 2 mps 757 mmHg 69%
    01:00 +6°C° 0 mm 2 mps 757 mmHg 71%
    02:00 +6°C° 0 mm 2 mps 756 mmHg 72%
    03:00 +6°C° 0 mm 2 mps 756 mmHg 74%
    04:00 +5°C° 0 mm 3 mps 756 mmHg 75%
    05:00 +7°C° 0 mm 3 mps 755 mmHg 73%
    06:00 +8°C° 0 mm 4 mps 754 mmHg 70%
    07:00 +10°C° 0 mm 4 mps 754 mmHg 68%
    08:00 +10°C° 0 mm 5 mps 753 mmHg 68%
    09:00 +12°C° 0 mm 5 mps 752 mmHg 67%
    10:00 +13°C° 0 mm 5 mps 751 mmHg 67%
    11:00 +15°C° 0 mm 6 mps 750 mmHg 65%
    12:00 +17°C° 0 mm 6 mps 749 mmHg 64%
    13:00 +19°C° 0 mm 6 mps 748 mmHg 62%
    14:00 +20°C° 0.1 mm 7 mps 747 mmHg 62%
    15:00 +20°C° 0.1 mm 7 mps 746 mmHg 63%
    16:00 +20°C° 0.1 mm 7 mps 745 mmHg 63%
    17:00 +18°C° 0.8 mm 7 mps 745 mmHg 68%
    18:00 +17°C° 0.8 mm 7 mps 745 mmHg 73%
    19:00 +16°C° 0.8 mm 7 mps 744 mmHg 78%
    20:00 +14°C° 0.3 mm 7 mps 744 mmHg 81%
    21:00 +11°C° 0.3 mm 7 mps 744 mmHg 85%
    22:00 +9°C° 0.3 mm 7 mps 744 mmHg 88%
    23:00 +8°C° 0 mm 6 mps 745 mmHg 89%

    28 May, Monday

    Time Temperature Precipitation Wind Pressure Humidity
    00:00 +6°C° 0 mm 5 mps 745 mmHg 89%
    01:00 +5°C° 0 mm 5 mps 745 mmHg 90%
    02:00 +4°C° 0 mm 4 mps 746 mmHg 91%
    03:00 +4°C° 0 mm 4 mps 746 mmHg 92%
    04:00 +4°C° 0 mm 4 mps 746 mmHg 93%
    05:00 +4°C° 0.1 mm 4 mps 746 mmHg 89%
    06:00 +5°C° 0.1 mm 5 mps 746 mmHg 85%
    07:00 +5°C° 0.1 mm 6 mps 747 mmHg 80%
    08:00 +6°C° 0.1 mm 7 mps 747 mmHg 72%
    09:00 +6°C° 0.1 mm 7 mps 747 mmHg 63%
    10:00 +7°C° 0.1 mm 8 mps 747 mmHg 54%
    11:00 +9°C° 0.1 mm 7 mps 746 mmHg 52%
    12:00 +9°C° 0.1 mm 7 mps 746 mmHg 49%
    13:00 +9°C° 0.1 mm 7 mps 746 mmHg 47%
    14:00 +9°C° 0.2 mm 7 mps 746 mmHg 50%
    15:00 +9°C° 0.2 mm 7 mps 746 mmHg 53%
    16:00 +9°C° 0.2 mm 7 mps 746 mmHg 55%
    17:00 +8°C° 0.2 mm 6 mps 746 mmHg 59%
    18:00 +7°C° 0.2 mm 6 mps 746 mmHg 62%
    19:00 +7°C° 0.2 mm 5 mps 746 mmHg 65%
    20:00 +5°C° 0 mm 5 mps 746 mmHg 66%
    21:00 +4°C° 0 mm 4 mps 746 mmHg 67%
    22:00 +3°C° 0 mm 4 mps 746 mmHg 68%
    23:00 +2°C° 0 mm 3 mps 745 mmHg 70%
    Show more